Regional Weather Roundup
Issued by NWS Charleston, SC

Current Version | Previous Version | Graphics & Text | Print | Product List | Glossary On
Versions: 1 2 3 4 5 6 7 8 9 10 11 12 13 14 15 16 17 18 19 20 21 22 23 24 25 26 27 28 29 30 31 32 33 34 35 36 37 38 39 40 41 42 43 44 45 46 47 48 49 50
000
ASUS42 KCHS 202312
RWRCHS

REGIONAL WEATHER ROUNDUP
NATIONAL WEATHER SERVICE CHARLESTON SC
600 PM EST FRI JAN 20 2017

NOTE: "FAIR" INDICATES FEW OR NO CLOUDS BELOW 12,000 FEET WITH NO
SIGNIFICANT WEATHER AND/OR OBSTRUCTIONS TO VISIBILITY.

NOT ALL STATIONS ARE QUALITY CONTROLLED. USE DATA WITH CAUTION...
ESPECIALLY DEWPOINT OBSERVATIONS.

SCZ027-030-031-034>040-042>050-210000-
...SOUTHEAST SOUTH CAROLINA...

CITY           SKY/WX    TMP DP  RH WIND       PRES   REMARKS
N CHARLESTON   PTCLDY    68  58  70 SW5       29.86S
WATERFRONT PRK   N/A     71  61  70 VRB3      29.85R
MOUNT PLEASANT FAIR      70  61  73 SW5       29.87R
JOHNS ISLAND   FAIR      64  61  88 S7        29.88R
PINOPOLIS        N/A     72  63  73 SW7       29.77R
MONCKS CORNER  FAIR      66  57  72 SW5       29.86R
SUMMERVILLE    FAIR      70  61  73 CALM      29.87R
BEAUFORT MCAS  PTCLDY    67  61  81 S6        29.88R
BEAUFORT ARPT  NOT AVBL
HILTON HEAD IS CLEAR     64  61  88 S7        29.89R
WALTERBORO     CLEAR     66  59  77 S5        29.87S
ALLENDALE      FAIR      70  61  73 CALM      29.85R

...SOUTHERN MIDLANDS AND PEE DEE...

CITY           SKY/WX    TMP DP  RH WIND       PRES   REMARKS
GEORGETOWN     FAIR      64  59  82 W3        29.87R
KINGSTREE      FAIR      70  55  60 S3        29.85R
ORANGEBURG     CLEAR     67  58  72 S7        29.85R
BARNWELL       FAIR      72  61  68 CALM      29.85R
AIKEN          FAIR      64  54  68 S5        29.87R
MANNING        FAIR      64  57  77 CALM      29.85R
COLUMBIA       PTCLDY    71  55  56 S5        29.82R
SUMTER         CLEAR     67  53  61 S5        29.82R
FLORENCE       CLEAR     67  58  72 CALM      29.85R
MYRTLE BEACH   CLEAR     61  54  77 S8        29.86R
N MYRTLE BEACH CLEAR     60  58  92 SW5       29.84S

$$

GAZ063-065-086>088-099>101-113>116-118-119-134>141-150-210000-
...SOUTHEAST GEORGIA...

CITY           SKY/WX    TMP DP  RH WIND       PRES   REMARKS
SAVANNAH ARPT  PTCLDY    71  58  63 CALM      29.87S
HUNTER AAF     CLEAR     72  64  75 CALM      29.85R
FORT STEWART   CLEAR     71  62  72 CALM      29.85S
STATESBORO     CLEAR     68  63  83 CALM      29.87S
SYLVANIA       CLEAR    N/A N/A N/A CALM      29.87S
CLAXTON        FAIR     N/A N/A N/A CALM      29.88R

...CSRA...CENTRAL AND FAR SOUTHEAST GEORGIA...

CITY           SKY/WX    TMP DP  RH WIND       PRES   REMARKS
THOMSON        CLEAR     71  59  66 CALM      29.88S
AUGUSTA-BUSH   CLEAR     74  55  51 SW8       29.84R
AUGUSTA-DANIEL CLEAR     74  53  48 SW7       29.85R
SWAINSBORO     FAIR      70  61  73 CALM      29.89R
VIDALIA        MOCLDY    70  64  83 CALM      29.88R
EASTMAN        FAIR      71  54  55 CALM      29.90S
HAZLEHURST     FAIR      72  65  80 CALM      29.87R
ALMA           CLOUDY    71  65  81 CALM      29.87R
WAYCROSS       CLOUDY    77  67  72 SW5       29.88R
JESUP          FAIR      72  61  68 CALM      29.88R
BAXLEY         FAIR      72  64  78 CALM      29.88R
BRUNSWICK      CLEAR     75  64  69 CALM      29.89R
SAINT SIMONS   CLEAR     68  61  78 SE7       29.88R

$$

SCZ027-028-034-036>038-045-046-048>050-GAZ119-141-210000-
...LAKE AND SUPPLEMENTAL COASTAL OBSERVATIONS...

STATION/POSITION TIME  TEMP    WIND        PRES    WAVE   SWELL
                       AIR SEA DIR/SP/G            HT/PER HT/PER/DIR
                 (UTC) (F)     (DEG/KT/KT) (MB)    (FT/S) (FT/S/D)
WINYAH BAY       NOT AVBL
LAKE MURRAY      2220   71     220/  4/  7 1009.1
ACE BASIN NERRS  2145   73     250/  3     1011.0
FORT PULASKI     2248   65 59  190/  4/  5 1012.2R
SAPELO ISLAND    2200   77     250/  3     1011.0

$$

ANZ835-935-AMZ111-154-330-350-352-354-370-450-454-472-210000-
...C-MAN AND BUOY OBSERVATIONS...

STATION/POSITION TIME  TEMP    WIND        PRES    WAVE   SWELL
                       AIR SEA DIR/SP/G            HT/PER HT/PER/DIR
                 (UTC) (F)     (DEG/KT/KT) (MB)    (FT/S) (FT/S/D)
BUOY 41004       2150   69 71  240/ 14/ 16 1010.8    3/ 4   2/100/ 8
BUOY 41008       2150   63 61  150/  6/  6 1011.4    2/ 5   2/150/ 5
FOLLY BEACH CMAN 2200   61     220/  8/ 10 1012.0R
CAPERS NEARSHORE 2208   59 56  230/ 10/ 14 1011.0R
FRIPP NEARSHORE  2208   61 59  190/  6/  8 1011.5R


STATION/POSITION TIME  TEMP    WIND        PRES    WAVE   SWELL
                       AIR SEA DIR/SP/G            HT/PER HT/PER/DIR
                 (UTC) (F)     (DEG/KT/KT) (MB)    (FT/S) (FT/S/D)
5E ST. MARYS GA  2300      65                N/A     2/10
FRYING PAN BUOY  2250   70 71  230/ 16/ 19 1010.5R   3/12   2/120/12
BUOY 41025       2250   71 76  260/ 16/ 17 1010.2R   5/14   3/ 90/14
CAPE LOOKOUT NC  2200   65     220/  7/  9 1010.2R
BUOY 41002       2250   71 70  180/  4/  6 1013.0S   6/11   5/ 10/11
BUOY 41010       NOT AVBL
ST AUGUSTINE FL  2300   77 63  250/  6/  8 1013.5R


$$



USA.gov is the U.S. government's official web portal to all federal, state and local government web resources and services.